www.pogodaiklimat.ru

Погода и климат >> Архив погоды >> Россия >> Крым >> Черноморское


АРХИВ ПОГОДЫ в Черноморском

Время (UTC), дата Ветер
(напр.,м/с)
 
Видим.   Явления Облачность Т
(С)
Тd
(С)
f
(%)
Тe
(С)
Тes
(С)
Комфортность P
(гПа)
Po
(гПа)
Тmin
(С)
Tmax
(С)
R
(мм)
R24
(мм)
S
(см)
12 18.05 В 6
{10}
50 км 5/4 600 м
[Cu med, cong Ci fib]
+28.4 +16.4 48 +32 +35 душно 1005.4 1004.3
15 18.05 В 3
{10}
20 км 6/0
[Ac trans]
+22.6 +16.6 69 +27 +29 душно 1004.9 1003.7
18 18.05 В 3
{10}
20 км 9/0
[Ac trans]
+21.6 +15.6 69 +25 +25 комфорт 1006.4 1005.2 +28.9
21 18.05 В 2 10 км слаб. ливневой дождь 9/6 600 м
[Cb cap Ac trans]
+18.1 +15.6 85 +19 +19 1006.8 1005.6
00 19.05 В 1 4000 м дымка {ливн. осадки} 8/3 600 м
[Cb cap Ac trans]
+16.8 +15.4 91 +18 +18 1005.8 1004.6
03 19.05 В 2 4000 м дымка 9/5 600 м
[Cb cap Ac trans Ci fib]
+16.0 +15.3 96 +16 +16 1006.1 1004.9 +15.9 0.3
06 19.05 В 3 10 км 9/8 600 м
[Cb cap Ac trans Cc]
+20.5 +17.1 81 +24 +25 комфорт 1008.0 1006.8 +15.9 0.3
09 19.05 В 2 10 км 9/3 600 м
[Cb cap Ac trans Cc]
+19.6 +16.8 84 +22 +30 комфорт 1008.3 1007.1
12 19.05 В 4 20 км 9/3 600 м
[Cu med, cong Ac trans Cc]
+24.8 +17.2 63 +29 +33 душно 1009.4 1008.2
15 19.05 З 2 10 км 9/3 600 м
[Cb cap Ac As Cc]
+19.6 +17.0 85 +22 +24 комфорт 1010.3 1009.1
18 19.05 штиль 0 10 км 9/0
[Ac trans Ci fib]
+19.2 +16.5 84 +21 +21 комфорт 1010.6 1009.4 +26.1
21 19.05 штиль 0 4000 м дымка 10/10 300 м
[St]
+17.4 +16.1 92 +17 +17 1011.8 1010.6
00 20.05 В 1 4000 м дымка 9/0
[Ac trans]
+15.0 +14.3 96 +15 +15 1012.1 1010.9
03 20.05 В 1 4000 м дымка 9/3 300 м
[St Cc]
+16.0 +14.9 93 +17 +17 1013.2 1012.0 +14.8
06 20.05 ЮВ 1 20 км 9/0
[Ci fib]
+19.5 +15.3 77 +22 +30 комфорт 1014.3 1013.1 +14.8
09 20.05 С 1 10 км 9/1 600 м
[Cu hum Ci fib]
+19.6 +16.6 83 +23 +38 комфорт 1014.8 1013.6
12 20.05 штиль 0 10 км 9/8 600 м
[Cu hum Ci fib]
+19.2 +16.5 84 +21 +24 комфорт 1014.3 1013.1
15 20.05 Ю 1 20 км 1/0
[Ci fib]
+22.2 +13.6 58 +25 +29 комфорт 1013.8 1012.6
18 20.05 Ю 1 20 км 9/0
[Ci fib]
+18.0 +14.2 78 +19 +19 1013.8 1012.6 +22.9
21 20.05 Ю 1 10 км 4/0
[Cc]
+17.1 +13.9 81 +18 +18 1014.0 1012.8
00 21.05 Ю 6 10 км 10/0
[Ac trans]
+17.4 +13.9 80 +17 +17 1013.1 1011.9
03 21.05 ЮВ 5
{12}
10 км 9/0
[Ac trans Ci fib]
+17.6 +14.1 80 +17 +17 1013.5 1012.3 +17.0
06 21.05 ЮВ 4 20 км 9/0
[Ac As Ci fib]
+18.8 +14.5 76 +20 +22 1014.4 1013.2 +16.8
09 21.05 Ю 8-13
{14}
20 км 10/0
[Ac As]
+20.0 +13.3 65 +21 +22 комфорт 1014.4 1013.2
12 21.05 ЮЗ 5
{13}
20 км 9/0
[Ac As Cc]
+23.1 +14.9 60 +27 +30 душно 1014.8 1013.6
15 21.05 Ю 6
{10}
20 км 10/0
[Ac cuf]
+20.7 +13.6 64 +23 +23 комфорт 1013.6 1012.4
18 21.05 Ю 4
{10}
20 км 10/0
[Ac und]
+17.8 +13.9 78 +18 +18 1012.7 1011.5 +23.4
21 21.05 ЮЗ 2 10 км 8/0
[Ac As Cc]
+17.4 +14.9 85 +18 +18 1012.7 1011.5
00 22.05 ЮЗ 4
{11}
10 км зарница 10/6 600 м
[Cb cap Ac As]
+16.2 +14.1 87 +15 +15 1012.5 1011.3
03 22.05 ЮЗ 4 10 км {гроза} 8/0
[Ac As Ci ing]
+15.6 +13.8 89 +15 +15 1011.6 1010.4 +15.2
06 22.05 З 4 20 км {гроза} 3/3 600 м
[Cu med, cong]
+18.4 +13.9 75 +19 +23 1012.0 1010.8 +15.2
09 22.05 З 6 20 км 3/1 600 м
[Cu med, cong Ci fib]
+19.4 +14.0 71 +21 +27 комфорт 1012.2 1011.0
12 22.05 ЮЗ 6-10
{11}
50 км 3/1 600 м
[Cu med, cong Ci fib]
+22.2 +9.7 45 +24 +29 комфорт 1012.1 1010.9
15 22.05 З 6
{11}
20 км 3/1 600 м
[Cu med, cong Ac trans Ci fib]
+20.7 +11.3 55 +22 +24 комфорт 1011.5 1010.3
18 22.05 ЮЗ 4
{10}
20 км 3/1 600 м
[Cu med, cong Ac trans Ci fib]
+17.4 +12.5 73 +17 +17 1011.4 1010.2 +22.4
21 22.05 ЮЗ 6 20 км 1/1 600 м
[Cu med, cong]
+17.4 +10.8 65 +17 +17 1011.5 1010.3
00 23.05 ЮЗ 4 20 км ясно +17.2 +10.3 64 +17 +17 1010.5 1009.3
03 23.05 ЮЗ 4 10 км 3/3 600 м
[Cu med, cong]
+16.6 +14.1 85 +16 +16 1010.3 1009.1 +16.4
06 23.05 З 5 20 км 3/3 600 м
[Cu hum]
+21.5 +12.9 58 +24 +27 комфорт 1010.1 1008.9 +16.4
09 23.05 З 6 20 км 3/3 600 м
[Cu med, cong]
+22.0 +12.1 53 +24 +29 комфорт 1010.3 1009.1
12 23.05 З 6 20 км 3/3 600 м
[Cu med, cong]
+22.2 +14.8 63 +26 +30 душно 1010.1 1008.9
15 23.05 ЮЗ 4 20 км 3/3 600 м
[Cu med, cong]
+21.0 +14.6 67 +24 +26 комфорт 1009.5 1008.3
18 23.05 ЮЗ 3 20 км 1/0
[Ci fib]
+18.2 +14.8 81 +19 +19 1009.9 1008.7 +23.3
21 23.05 ЮЗ 2 4000 м дымка ясно +16.0 +14.4 90 +16 +16 1010.2 1009.0
00 24.05 Ю 2 4000 м дымка ясно +15.7 +14.1 90 +16 +16 1009.7 1008.5
03 24.05 Ю 3 4000 м дымка ясно +15.5 +14.5 94 +15 +15 1009.0 1007.8 +15.0
06 24.05 Ю 2 20 км 4/0
[Ci fib]
+22.1 +16.2 69 +26 +34 душно 1008.8 1007.6 +15.0
09 24.05 Ю 4 20 км 10/3 600 м
[Cu med, cong Cs]
+24.6 +12.9 48 +27 +33 жарко 1009.1 1007.9
12 24.05 ЮЗ 3 20 км 10/3 600 м
[Cu med, cong As op Cs]
+24.3 +12.3 47 +26 +30 жарко 1008.6 1007.4
15 24.05 З 4 20 км 9/3 600 м
[Sc diur, vesp Ac As]
+21.5 +14.4 64 +24 +25 комфорт 1007.9 1006.7
18 24.05 ЮЗ 2 20 км 10/5 600 м
[Cb cap As op]
+19.5 +13.0 66 +22 +22 комфорт 1008.4 1007.2 +25.4
21 24.05 З 3 10 км слаб. ливневой дождь 10/10 600 м
[Cb cap]
+16.9 +13.3 79 +17 +17 1008.9 1007.7
00 25.05 Ю 1 4000 м дымка {ливн. осадки} 10/10 600 м
[Cb cap]
+16.3 +14.8 91 +17 +17 1007.6 1006.4
03 25.05 Ю 4 10 км 9/9 600 м
[Cb cap]
+16.4 +14.3 87 +16 +16 1007.5 1006.3 +16.2 1
06 25.05 Ю 2 20 км 9/9 600 м
[Cb cap]
+18.8 +12.8 68 +20 +21 1008.1 1006.9 +16.2 1

 

Местоположение метеостанции Черноморское (Крым, Россия): широта 45.52 долгота 32.70 высота над уровнем моря 10 м.

В архиве по умолчанию представлена погода в Черноморском за последнюю неделю. Архивные данные за месяц целиком и за предыдущие месяцы, начиная с января 2011 года, Вы можете получить, выбрав интересующий диапазон дат из раскрывающегося списка и нажав кнопку "Ввод!".


*Определитесь, кто Вы:
робот инопланетянин человек

Внимание! Время в таблицах - всемирное. Для получения местного времени необходимо прибавить поправку, которая равна 3 ч.

Смотрите также архив погоды в соседних городах и на ближайших метеорологических станциях:

Погода в Евпатории (Крым, Россия) (65 км)
Погода в Раздольном (Крым, Россия) (67 км)
Погода в Хорлах (Херсонская область, Украина) (83 км)
Погода в Бехтерах (Херсонская область, Украина) (87 км)
Погода в Ишуни (Крым, Россия) (98 км)
Погода в Симферополе (Крым, Россия) (113 км)
Погода в Клепинино (Крым, Россия) (115 км)
Погода в Херсонесском Маяке (город Севастополь, Россия) (117 км)
Погода в Севастополе (город Севастополь, Россия) (119 км)
Погода в Херсоне (Херсонская область, Украина) (124 км)

Пояснения к столбцам:

Ветер - указаны скорость ветра в м/с - средняя за 10 мин, порывы в срок и между сроками (в фигурных скобках) и направление, откуда дует ветер: С - северный, СВ - северо-восточный, В - восточный, ЮВ - юго-восточный, Ю - южный, ЮЗ - юго-западный, З - западный, СЗ - северо-западный.
Видимость - горизонтальная дальность видимости в метрах или километрах. При видимости от 1 до 10 км при отсутствии осадков обычно наблюдается дымка, при ухудшении видимости до 1 км и менее - туман. В сухую погоду видимость может ухудшаться дымом, пылью или мглою.
Явления - указаны атмосферные явления, наблюдавшиеся в срок или в последний час перед сроком; фигурными скобками обозначены явления, наблюдавшиеся между сроками (за 1-3 часа до срока); квадратными скобками обозначены град или гололедные отложения с указанием их диаметра в мм.
Облачность - указаны через наклонную черту общая и нижняя облачность в баллах и высота нижней границы облаков в метрах; квадратными скобками обозначены формы облаков: Ci - перистые, Cs - перисто-слоистые, Cc - перисто-кучевые, Ac - высококучевые, As - высокослоистые, Sc - слоисто-кучевые, Ns - слоисто-дождевые, Cu - кучевые, Cb - кучево-дождевые. Подробнее классификацию облаков см. в Атласе облаков (PDF).
T - Температура воздуха - температура, измеренная на высоте 2 м над землей.
Td - Температура точки росы - температура, при понижении до которой содержащийся в воздухе водяной пар достигнет насыщения.
f - Относительная влажность воздуха - влажноcть воздуха, измеренная на высоте 2 м над землей.
Te - Эффективная температура - температура, которую ощущает одетый по сезону человек в тени. Характеристика душности погоды. При расчете учитывается влияние влажности воздуха и скорости ветра на теплоощущения человека.
Tes - Эффективная температура на солнце - температура, которую ощущает человек, с поправкой на солнечный нагрев. Характеристика знойности погоды. Зависит от высоты солнца над горизонтом, облачности и скорости ветра. Ночью, в пасмурную погоду, а также при ветре 12 м/с и более поправка равна нулю.
P - Атмосферное давление - приведенное к уровню моря атмосферное давление.
Po - Атмосферное давление - измеренное на уровне метеостанции атмосферное давление.
Tmin - Минимальная температура - минимум температуры воздуха на высоте 2 м над землей.
Tmax - Максимальная температура - максимум температуры воздуха на высоте 2 м над землей.
R - Количество осадков - Количество выпавших осадков за период времени, мм. При наведении курсора мыши на число - период времени, за который выпало указанное количество осадков.
R24 - Количество осадков - Количество выпавших осадков за 24 часа, мм.
S - Снежный покров - Высота снежного покрова, см. При наведении курсора мыши на число - состояние снежного покрова и степень покрытия местности в баллах.